,

(GMT )
Filton

Weather History for EGTG - July, 2014

Change the Weather History Date:

Monday, July 28, 2014

  Actual Average Record
Temperature  
Mean Temperature 66 °F -  
Max Temperature 76 °F - - ()
Min Temperature 57 °F - - ()
Cooling Degree Days 2    
Growing Degree Days 16 (Base 50)    
Moisture  
Dew Point 50 °F    
Average Humidity 49    
Maximum Humidity 71    
Minimum Humidity 27    
Precipitation  
Precipitation 0.00 in - - ()
Sea Level Pressure  
Sea Level Pressure 30.02 in    
Wind  
Wind Speed 4 mph ()    
Max Wind Speed 9 mph    
Max Gust Speed -    
Visibility 18.5 miles    
Events      
T = Trace of Precipitation, MM = Missing Value Source: Averaged Metar Reports

Daily Weather History Graph

Daily Weather History Graph

Search for Another Location

Airport or City:

Trip Planner

Search our weather history database for the weather conditions in past years. The results will help you decide how hot, cold, wet, or windy it might be!

Date:

Astronomy

Jul. 28, 2014 Rise Set
Actual Time 5:27 AM BST 9:04 PM BST
Civil Twilight 4:46 AM BST 9:46 PM BST
Nautical Twilight 3:49 AM BST 10:42 PM BST
Astronomical Twilight 2:22 AM BST 12:06 AM BST
Moon 7:13 AM BST (7/28) 9:17 PM BST (7/28)
Length of Visible Light 17h 00m
Length of Day
15h 37m
New Moon, 2% of the Moon is Illuminated
Jul 28
New Moon
Aug 4
First Quarter
Aug 10
Full
Aug 17
Last Quarter
Aug 25
New

Hourly Weather History & Observations

Time (BST) Temp. Dew Point Humidity Pressure Visibility Wind Dir Wind Speed Gust Speed Precip Events Conditions
12:00 AM 61 °F 49 °F 55% 30.04 in 25 mi NNW 3.5 mph - -   Partly Cloudy
1:00 AM 60 °F 49 °F 58% 30.03 in 22 mi WNW 3.5 mph - -   Mostly Cloudy
2:00 AM 59 °F 49 °F 62% 30.02 in 22 mi NNE 2.3 mph - -   Partly Cloudy
3:00 AM 59 °F 49 °F 62% 30.01 in 25 mi East 2.3 mph - -   Overcast
4:00 AM 60 °F 49 °F 59% 30.01 in 25 mi NNE 1.2 mph - -   Overcast
5:00 AM 59 °F 50 °F 64% 30.00 in 22 mi North 2.3 mph - -   Scattered Clouds
6:00 AM 58 °F 51 °F 71% 30.01 in 22 mi NW 3.5 mph - -   Scattered Clouds
7:00 AM 60 °F 52 °F 67% 30.01 in 19 mi NNW 2.3 mph - -  
8:00 AM 62 °F 52 °F 61% 30.01 in 19 mi North 5.8 mph - -   Scattered Clouds
9:00 AM 64 °F 53 °F 58% 30.01 in 25 mi North 6.9 mph - -  
10:00 AM 64 °F 53 °F 59% 30.02 in 25 mi North 5.8 mph - -   Scattered Clouds
11:00 AM 66 °F 52 °F 52% 30.01 in 22 mi North 6.9 mph - -   Scattered Clouds
12:00 PM 67 °F 52 °F 49% 30.01 in 16 mi North 8.1 mph - -   Partly Cloudy
1:00 PM 72 °F 50 °F 34% 30.02 in 22 mi ENE 8.1 mph - -   Partly Cloudy
2:00 PM 72 °F 53 °F 40% 30.02 in 19 mi North 9.2 mph - -   Mostly Cloudy
3:00 PM 75 °F 51 °F 32% 30.01 in 19 mi North 6.9 mph - -   Scattered Clouds
4:00 PM 73 °F 48 °F 30% 30.01 in 22 mi North 8.1 mph - -   Partly Cloudy
5:00 PM 74 °F 47 °F 28% 30.01 in 19 mi NNW 6.9 mph - -   Scattered Clouds
6:00 PM 75 °F 47 °F 27% 30.01 in 22 mi NNW 8.1 mph - -   Scattered Clouds
7:00 PM 74 °F 47 °F 27% 30.01 in 25 mi North 8.1 mph - -   Scattered Clouds
8:00 PM 73 °F 49 °F 31% 30.03 in 22 mi North 8.1 mph - -   Mostly Cloudy
9:00 PM 69 °F 53 °F 47% 30.04 in 22 mi East 8.1 mph - -   Overcast
10:00 PM 67 °F 53 °F 51% 30.05 in 19 mi ESE 3.5 mph - -   Scattered Clouds
11:00 PM 64 °F 53 °F 58% 30.06 in 18 mi ESE 1.2 mph - -